User: anonymous
Location: Springfield
(37.2150°N, 93.2980°W)
Time: 10:54:57
(UTC-05:00)
Language:

Iridium 62 - Orbit

View from above orbital plane
View from above orbital plane
View from above satellite
View from above satellite

Ground track
Ground track

The orbit data is extracted from the following two-line orbital elements,

1 25285U 98021A   14212.38353298  .00000252  00000-0  82958-4 0  8661
2 25285 086.3981 303.5561 0002311 112.7822 247.3618 14.34218457854267
Epoch (UTC): 31 July 2014 09:12:17
Eccentricity: 0.0002311
inclination: 86.3981°
perigee height: 776 km
apogee height: 779 km
right ascension of ascending node: 303.5561°
argument of perigee: 112.7822°
revolutions per day: 14.34218457
mean anomaly at epoch: 247.3618°
orbit number at epoch: 85426

The dashed part of the orbit path shows where the satellite is in the earth's shadow,  

DLR